Location: Unspecified
(0.0000°N, 0.0000°E)
Time: 10:46:20
(UTC+00:00)

A-11 Canister half - Pass Details

Date: 07 August 2021
Orbit: 1515 x 1685 km, 47.2° (Epoch: 27 September)

Event Time Altitude Azimuth Distance (km) Brightness Sun altitude
Rises 22:59:50 0° 333° (NNW) 4,923 12.0 -67.1°
Enters shadow 23:02:27 - 337° (NNW) 4,156 11.5 -67.5°
Reaches altitude 10° 23:03:12 10° 339° (NNW) 3,938 - -67.7°
Maximum altitude 23:12:49 47° 50° (NE) 2,104 - -69.2°
Drops below altitude 10° 23:22:14 10° 121° (ESE) 3,884 - -70.6°
Sets 23:25:30 0° 126° (SE) 4,851 - -71.1°
